APJ284 ROAH-RJFF

Flight info

Callsign APJ284
Flight time 1h 33m
Altitude 37000
Route AMAMI Y25 ISKUP
Aircraft A20N/M-SDE2E3FGHIJ1RWXY/LB1

Departure

Time 2026-04-26 18:46
Airport Naha International Airport (ROAH)

Arrival

Time 2026-04-26 20:19
Airport Fukuoka Airport (RJFF)
Time Latitude Longitude Altitude Speed Heading
2026-04-26 18:04 26.20552 127.64944 22 ft 0 kts 142°
2026-04-26 18:29 26.20564 127.64934 21 ft 2 kts 143°
2026-04-26 18:30 26.20577 127.64923 24 ft 2 kts 144°
2026-04-26 18:30 26.20586 127.64916 23 ft 2 kts 146°
2026-04-26 18:30 26.20604 127.64902 23 ft 2 kts 146°
2026-04-26 18:30 26.20617 127.64890 24 ft 2 kts 124°
2026-04-26 18:31 26.20625 127.64875 21 ft 2 kts 113°
2026-04-26 18:31 26.20629 127.64863 21 ft 2 kts 107°
2026-04-26 18:31 26.20633 127.64845 21 ft 2 kts 94°
2026-04-26 18:31 26.20633 127.64827 22 ft 2 kts 98°
2026-04-26 18:32 26.20636 127.64809 23 ft 2 kts 109°
2026-04-26 18:32 26.20643 127.64793 24 ft 2 kts 118°
2026-04-26 18:32 26.20651 127.64777 24 ft 2 kts 132°
2026-04-26 18:32 26.20664 127.64765 22 ft 2 kts 146°
2026-04-26 18:33 26.20678 127.64756 24 ft 2 kts 157°
2026-04-26 18:33 26.20693 127.64751 24 ft 2 kts 170°
2026-04-26 18:33 26.20710 127.64749 23 ft 2 kts 178°
2026-04-26 18:33 26.20726 127.64748 23 ft 2 kts 177°
2026-04-26 18:34 26.20743 127.64747 23 ft 2 kts 177°
2026-04-26 18:34 26.20759 127.64746 22 ft 2 kts 178°
2026-04-26 18:34 26.20775 127.64746 22 ft 2 kts 178°
2026-04-26 18:34 26.20784 127.64745 22 ft 1 kts 178°
2026-04-26 18:35 26.20786 127.64745 22 ft 0 kts 178°
2026-04-26 18:37 26.20776 127.64746 21 ft 3 kts 178°
2026-04-26 18:38 26.20743 127.64747 23 ft 6 kts 178°
2026-04-26 18:38 26.20686 127.64750 23 ft 10 kts 176°
2026-04-26 18:38 26.20610 127.64755 25 ft 12 kts 177°
2026-04-26 18:38 26.20517 127.64759 22 ft 14 kts 178°
2026-04-26 18:39 26.20444 127.64762 22 ft 10 kts 178°
2026-04-26 18:39 26.20403 127.64764 22 ft 5 kts 178°
2026-04-26 18:39 26.20356 127.64766 22 ft 9 kts 178°
2026-04-26 18:39 26.20285 127.64769 22 ft 12 kts 178°
2026-04-26 18:40 26.20192 127.64772 22 ft 15 kts 177°
2026-04-26 18:40 26.20082 127.64779 22 ft 17 kts 178°
2026-04-26 18:40 26.19959 127.64784 21 ft 19 kts 176°
2026-04-26 18:40 26.19822 127.64792 22 ft 20 kts 178°
2026-04-26 18:41 26.19677 127.64798 22 ft 20 kts 176°
2026-04-26 18:41 26.19535 127.64804 22 ft 21 kts 177°
2026-04-26 18:41 26.19382 127.64811 22 ft 21 kts 177°
2026-04-26 18:41 26.19228 127.64818 24 ft 23 kts 178°
2026-04-26 18:42 26.19065 127.64827 22 ft 24 kts 178°
2026-04-26 18:42 26.18905 127.64834 22 ft 21 kts 177°
2026-04-26 18:42 26.18786 127.64838 24 ft 17 kts 178°
2026-04-26 18:42 26.18660 127.64845 22 ft 20 kts 178°
2026-04-26 18:43 26.18552 127.64850 24 ft 13 kts 177°
2026-04-26 18:43 26.18453 127.64854 22 ft 16 kts 177°
2026-04-26 18:43 26.18335 127.64861 24 ft 18 kts 179°
2026-04-26 18:43 26.18244 127.64796 25 ft 18 kts 263°
2026-04-26 18:44 26.18250 127.64666 20 ft 6 kts 290°
2026-04-26 18:44 26.18264 127.64659 22 ft 0 kts 356°
2026-04-26 18:45 26.18288 127.64657 21 ft 17 kts 356°
2026-04-26 18:45 26.18659 127.64636 23 ft 88 kts 357°
2026-04-26 18:45 26.19472 127.64597 23 ft 144 kts 357°
2026-04-26 18:46 26.20533 127.64537 360 ft 159 kts 354°
2026-04-26 18:46 26.21655 127.64463 933 ft 161 kts 356°
2026-04-26 18:46 26.22756 127.64425 1678 ft 155 kts 357°
2026-04-26 18:46 26.23869 127.64388 2268 ft 169 kts 356°
2026-04-26 18:47 26.25113 127.64333 2779 ft 189 kts 355°
2026-04-26 18:47 26.26427 127.63928 3260 ft 207 kts 330°
2026-04-26 18:47 26.27735 127.63097 3739 ft 228 kts 329°
2026-04-26 18:47 26.29164 127.62189 4298 ft 246 kts 329°
2026-04-26 18:48 26.30709 127.61204 4918 ft 262 kts 329°
2026-04-26 18:48 26.32279 127.60198 5862 ft 264 kts 329°
2026-04-26 18:48 26.33881 127.59169 6796 ft 267 kts 328°
2026-04-26 18:48 26.35494 127.58129 7654 ft 271 kts 328°
2026-04-26 18:49 26.37141 127.57065 8517 ft 274 kts 328°
2026-04-26 18:49 26.38775 127.55933 9364 ft 277 kts 321°
2026-04-26 18:49 26.40092 127.54362 10161 ft 281 kts 302°
2026-04-26 18:49 26.40866 127.52299 10553 ft 301 kts 281°
2026-04-26 18:50 26.40831 127.49888 10773 ft 326 kts 258°
2026-04-26 18:50 26.39866 127.47550 11310 ft 339 kts 236°
2026-04-26 18:50 26.38349 127.45521 12115 ft 342 kts 230°
2026-04-26 18:50 26.36714 127.43575 12915 ft 345 kts 229°
2026-04-26 18:51 26.34811 127.41906 13662 ft 354 kts 212°
2026-04-26 18:51 26.32461 127.40980 14318 ft 366 kts 193°
2026-04-26 18:51 26.29881 127.40857 14921 ft 375 kts 183°
2026-04-26 18:51 26.27250 127.40900 15533 ft 380 kts 183°
2026-04-26 18:52 26.24588 127.40952 16131 ft 385 kts 183°
2026-04-26 18:52 26.22810 127.40983 16531 ft 388 kts 184°
2026-04-26 18:52 26.19177 127.41034 17327 ft 393 kts 184°
2026-04-26 18:52 26.16426 127.41221 17891 ft 403 kts 173°
2026-04-26 18:53 26.13737 127.42233 18416 ft 415 kts 155°
2026-04-26 18:53 26.11355 127.44096 18912 ft 425 kts 138°
2026-04-26 18:53 26.09488 127.46662 19427 ft 431 kts 121°
2026-04-26 18:53 26.08296 127.49723 19907 ft 435 kts 104°
2026-04-26 18:54 26.07873 127.53048 20397 ft 435 kts 87°
2026-04-26 18:54 26.08249 127.56367 20891 ft 433 kts 70°
2026-04-26 18:54 26.09265 127.59509 21384 ft 433 kts 63°
2026-04-26 18:54 26.10366 127.62642 21884 ft 437 kts 66°
2026-04-26 18:55 26.11310 127.65882 22393 ft 443 kts 70°
2026-04-26 18:55 26.12093 127.69215 22891 ft 448 kts 73°
2026-04-26 18:55 26.12776 127.72615 23395 ft 452 kts 74°
2026-04-26 18:55 26.13414 127.76066 23796 ft 458 kts 75°
2026-04-26 18:56 26.14039 127.79555 24243 ft 461 kts 75°
2026-04-26 18:56 26.14665 127.83062 24653 ft 464 kts 75°
2026-04-26 18:56 26.15297 127.86590 25066 ft 467 kts 75°
2026-04-26 18:56 26.15945 127.90142 25462 ft 469 kts 72°
2026-04-26 18:57 26.17019 127.93543 25847 ft 464 kts 58°
2026-04-26 18:57 26.18081 127.95593 26087 ft 460 kts 49°
2026-04-26 18:57 26.20939 127.99027 26607 ft 447 kts 31°
2026-04-26 18:57 26.23526 128.00899 26994 ft 441 kts 21°
2026-04-26 18:58 26.26239 128.02499 27380 ft 442 kts 20°
2026-04-26 18:58 26.28973 128.04112 27809 ft 445 kts 21°
2026-04-26 18:58 26.31681 128.05797 28211 ft 448 kts 22°
2026-04-26 18:58 26.34386 128.07559 28573 ft 452 kts 23°
2026-04-26 18:59 26.37098 128.09371 28789 ft 458 kts 24°
2026-04-26 18:59 26.39849 128.11229 28882 ft 466 kts 24°
2026-04-26 18:59 26.45483 128.15055 29049 ft 481 kts 24°
2026-04-26 19:00 26.48359 128.17010 29161 ft 487 kts 24°
2026-04-26 19:00 26.51259 128.18984 29368 ft 489 kts 24°
2026-04-26 19:00 26.54166 128.20965 29672 ft 488 kts 24°
2026-04-26 19:00 26.57068 128.22943 30001 ft 487 kts 24°
2026-04-26 19:01 26.59966 128.24918 30283 ft 486 kts 24°
2026-04-26 19:01 26.62816 128.26860 30556 ft 486 kts 24°
2026-04-26 19:01 26.65670 128.28892 30832 ft 490 kts 28°
2026-04-26 19:01 26.68362 128.31282 31145 ft 496 kts 34°
2026-04-26 19:02 26.70825 128.34019 31444 ft 503 kts 41°
2026-04-26 19:02 26.73057 128.37062 31711 ft 507 kts 44°
2026-04-26 19:02 26.75247 128.40155 31964 ft 507 kts 44°
2026-04-26 19:02 26.76699 128.42195 32140 ft 507 kts 44°
2026-04-26 19:03 26.79639 128.46325 32495 ft 507 kts 44°
2026-04-26 19:03 26.81830 128.49407 32736 ft 507 kts 44°
2026-04-26 19:03 26.84027 128.52502 33019 ft 507 kts 43°
2026-04-26 19:03 26.86217 128.55593 33331 ft 505 kts 43°
2026-04-26 19:04 26.88396 128.58670 33594 ft 504 kts 43°
2026-04-26 19:04 26.90595 128.61721 33824 ft 500 kts 39°
2026-04-26 19:04 26.93020 128.64460 34042 ft 490 kts 32°
2026-04-26 19:04 26.95676 128.66789 34241 ft 479 kts 25°
2026-04-26 19:05 27.01345 128.70414 34631 ft 470 kts 19°
2026-04-26 19:05 27.04221 128.72156 34896 ft 468 kts 19°
2026-04-26 19:05 27.07086 128.73898 35105 ft 467 kts 19°
2026-04-26 19:06 27.09946 128.75636 35272 ft 468 kts 19°
2026-04-26 19:06 27.12806 128.77373 35437 ft 468 kts 19°
2026-04-26 19:06 27.15666 128.79112 35607 ft 467 kts 18°
2026-04-26 19:06 27.18528 128.80852 35768 ft 467 kts 18°
2026-04-26 19:07 27.21392 128.82594 35967 ft 467 kts 18°
2026-04-26 19:07 27.24240 128.84331 36245 ft 464 kts 18°
2026-04-26 19:07 27.27033 128.86033 36435 ft 463 kts 18°
2026-04-26 19:07 27.29865 128.87758 36564 ft 463 kts 18°
2026-04-26 19:08 27.32703 128.89487 36699 ft 463 kts 18°
2026-04-26 19:08 27.35540 128.91217 36824 ft 463 kts 18°
2026-04-26 19:08 27.38370 128.92943 36947 ft 463 kts 18°
2026-04-26 19:09 27.44026 128.96400 36957 ft 460 kts 18°
2026-04-26 19:09 27.49652 128.99842 36959 ft 460 kts 18°
2026-04-26 19:10 27.55279 129.03286 36963 ft 460 kts 18°
2026-04-26 19:10 27.59955 129.06153 36968 ft 460 kts 18°
2026-04-26 19:11 27.65586 129.09609 36969 ft 461 kts 18°
2026-04-26 19:11 27.71214 129.13067 36966 ft 460 kts 18°
2026-04-26 19:12 27.76835 129.16525 36968 ft 460 kts 18°
2026-04-26 19:12 27.82443 129.19980 36967 ft 457 kts 18°
2026-04-26 19:13 27.88026 129.23424 36971 ft 457 kts 18°
2026-04-26 19:13 27.93618 129.26875 36969 ft 457 kts 18°
2026-04-26 19:14 27.99217 129.30337 36996 ft 457 kts 18°
2026-04-26 19:14 28.04777 129.33780 36960 ft 455 kts 18°
2026-04-26 19:15 28.10303 129.37201 36958 ft 455 kts 18°
2026-04-26 19:15 28.15867 129.40652 36963 ft 456 kts 18°
2026-04-26 19:16 28.21415 129.44100 36950 ft 453 kts 18°
2026-04-26 19:16 28.26950 129.47541 36941 ft 455 kts 18°
2026-04-26 19:17 28.32493 129.50992 36933 ft 453 kts 18°
2026-04-26 19:17 28.38047 129.54452 36927 ft 455 kts 18°
2026-04-26 19:18 28.43702 129.57459 36913 ft 441 kts
2026-04-26 19:18 28.49569 129.59172 36916 ft 429 kts 359°
2026-04-26 19:19 28.55463 129.60072 36919 ft 427 kts 358°
2026-04-26 19:19 28.61317 129.60972 36927 ft 428 kts 358°
2026-04-26 19:20 28.67215 129.61875 36928 ft 428 kts 358°
2026-04-26 19:20 28.73117 129.62775 36936 ft 428 kts 358°
2026-04-26 19:21 28.79021 129.63676 36969 ft 428 kts 358°
2026-04-26 19:21 28.84934 129.64579 36936 ft 429 kts 358°
2026-04-26 19:22 28.90846 129.65483 36937 ft 428 kts 358°
2026-04-26 19:22 28.96759 129.66389 36935 ft 428 kts 358°
2026-04-26 19:23 29.02671 129.67294 36936 ft 429 kts 358°
2026-04-26 19:23 29.08559 129.68198 36930 ft 429 kts 358°
2026-04-26 19:24 29.14483 129.69109 36930 ft 429 kts 358°
2026-04-26 19:24 29.23376 129.70479 36927 ft 430 kts 358°
2026-04-26 19:25 29.28307 129.71239 36930 ft 430 kts 358°
2026-04-26 19:25 29.35237 129.72310 36930 ft 430 kts 358°
2026-04-26 19:26 29.41173 129.73228 36927 ft 430 kts 358°
2026-04-26 19:26 29.47080 129.74141 36926 ft 431 kts 359°
2026-04-26 19:27 29.53025 129.75064 36932 ft 431 kts 359°
2026-04-26 19:27 29.58970 129.75987 36926 ft 431 kts 359°
2026-04-26 19:28 29.64911 129.76910 36926 ft 431 kts 359°
2026-04-26 19:28 29.70856 129.77835 36924 ft 431 kts 359°
2026-04-26 19:29 29.76799 129.78761 36923 ft 430 kts 359°
2026-04-26 19:29 29.82744 129.79688 36928 ft 431 kts 359°
2026-04-26 19:30 29.88680 129.80614 36929 ft 431 kts 359°
2026-04-26 19:30 29.93650 129.81387 36933 ft 435 kts 359°
2026-04-26 19:31 30.00651 129.82486 36930 ft 434 kts 359°
2026-04-26 19:31 30.06633 129.83191 36944 ft 431 kts 356°
2026-04-26 19:32 30.12633 129.83783 36936 ft 432 kts 356°
2026-04-26 19:32 30.18625 129.84413 36936 ft 432 kts 356°
2026-04-26 19:33 30.24618 129.85060 36933 ft 432 kts 356°
2026-04-26 19:33 30.30621 129.85709 36933 ft 433 kts 357°
2026-04-26 19:34 30.36621 129.86360 36933 ft 433 kts 357°
2026-04-26 19:34 30.42583 129.87008 36932 ft 433 kts 357°
2026-04-26 19:35 30.48588 129.87661 36948 ft 435 kts 357°
2026-04-26 19:35 30.54639 129.88317 36933 ft 437 kts 357°
2026-04-26 19:36 30.59710 129.88872 36933 ft 436 kts 357°
2026-04-26 19:36 30.66734 129.89639 36933 ft 436 kts 357°
2026-04-26 19:37 30.72807 129.90301 36934 ft 439 kts 357°
2026-04-26 19:37 30.78880 129.90967 36932 ft 438 kts 357°
2026-04-26 19:38 30.84949 129.91633 36934 ft 438 kts 357°
2026-04-26 19:38 30.91019 129.92298 36936 ft 440 kts 358°
2026-04-26 19:39 30.97131 129.92968 36931 ft 440 kts 358°
2026-04-26 19:39 31.03195 129.93637 36931 ft 440 kts 358°
2026-04-26 19:40 31.09296 129.94309 36933 ft 440 kts 358°
2026-04-26 19:40 31.15407 129.94982 36936 ft 441 kts 358°
2026-04-26 19:41 31.21524 129.95659 36930 ft 441 kts 358°
2026-04-26 19:41 31.26606 129.96221 36930 ft 441 kts 358°
2026-04-26 19:42 31.33756 129.96912 36935 ft 441 kts 356°
2026-04-26 19:42 31.39872 129.97358 36933 ft 440 kts 356°
2026-04-26 19:43 31.45989 129.97826 36933 ft 440 kts 356°
2026-04-26 19:43 31.52104 129.98308 36947 ft 441 kts 356°
2026-04-26 19:44 31.58239 129.98795 36933 ft 442 kts 356°
2026-04-26 19:44 31.64373 129.99283 36933 ft 442 kts 356°
2026-04-26 19:45 31.70509 129.99772 36933 ft 441 kts 356°
2026-04-26 19:45 31.76600 130.00257 36936 ft 441 kts 356°
2026-04-26 19:46 31.82727 130.00746 36936 ft 441 kts 356°
2026-04-26 19:46 31.88854 130.01236 36936 ft 441 kts 356°
2026-04-26 19:47 31.92959 130.01564 36964 ft 442 kts 356°
2026-04-26 19:47 32.01131 130.02218 36939 ft 442 kts 356°
2026-04-26 19:48 32.07285 130.02713 36938 ft 442 kts 356°
2026-04-26 19:48 32.13432 130.03208 36947 ft 445 kts 356°
2026-04-26 19:49 32.19642 130.03706 36932 ft 447 kts 356°
2026-04-26 19:49 32.25855 130.04211 36937 ft 447 kts 356°
2026-04-26 19:50 32.32021 130.04711 36937 ft 447 kts 356°
2026-04-26 19:50 32.38244 130.05214 36939 ft 449 kts 356°
2026-04-26 19:51 32.44473 130.05720 36934 ft 448 kts 356°
2026-04-26 19:51 32.50670 130.06226 36567 ft 444 kts 356°
2026-04-26 19:52 32.53746 130.06476 36000 ft 443 kts 356°
2026-04-26 19:52 32.56820 130.06724 35259 ft 443 kts 355°
2026-04-26 19:52 32.58888 130.06783 34768 ft 438 kts 351°
2026-04-26 19:52 32.61863 130.06540 34053 ft 431 kts 345°
2026-04-26 19:53 32.64793 130.05931 33226 ft 425 kts 340°
2026-04-26 19:53 32.67688 130.05181 32335 ft 427 kts 341°
2026-04-26 19:53 32.70603 130.04440 31431 ft 428 kts 341°
2026-04-26 19:53 32.73521 130.03703 30568 ft 429 kts 342°
2026-04-26 19:54 32.76425 130.02971 29987 ft 424 kts 342°
2026-04-26 19:54 32.79285 130.02250 29425 ft 416 kts 342°
2026-04-26 19:54 32.82104 130.01537 28642 ft 413 kts 341°
2026-04-26 19:54 32.84910 130.00822 27851 ft 412 kts 341°
2026-04-26 19:55 32.87707 130.00108 27089 ft 410 kts 341°
2026-04-26 19:55 32.90501 129.99393 26160 ft 413 kts 341°
2026-04-26 19:55 32.93341 129.98663 24798 ft 426 kts 342°
2026-04-26 19:55 32.96301 129.97897 23341 ft 443 kts 342°
2026-04-26 19:56 32.99357 129.97112 22124 ft 454 kts 342°
2026-04-26 19:56 33.02453 129.96322 21203 ft 454 kts 342°
2026-04-26 19:56 33.05514 129.95546 20582 ft 444 kts 343°
2026-04-26 19:56 33.08503 129.94788 20231 ft 438 kts 342°
2026-04-26 19:57 33.11505 129.94019 19985 ft 442 kts 342°
2026-04-26 19:57 33.14470 129.93258 19755 ft 440 kts 342°
2026-04-26 19:57 33.17455 129.92491 19471 ft 439 kts 343°
2026-04-26 19:57 33.20430 129.91727 19002 ft 435 kts 343°
2026-04-26 19:58 33.23374 129.90972 18375 ft 430 kts 343°
2026-04-26 19:58 33.26281 129.90225 17624 ft 425 kts 343°
2026-04-26 19:58 33.29154 129.89485 17054 ft 422 kts 343°
2026-04-26 19:58 33.32025 129.88742 16467 ft 422 kts 343°
2026-04-26 19:59 33.34879 129.88005 15878 ft 418 kts 343°
2026-04-26 19:59 33.37709 129.87274 15298 ft 414 kts 344°
2026-04-26 19:59 33.40518 129.86549 14716 ft 411 kts 344°
2026-04-26 19:59 33.43304 129.85829 14159 ft 408 kts 344°
2026-04-26 20:00 33.46075 129.85172 13532 ft 406 kts 350°
2026-04-26 20:00 33.48890 129.85165 12999 ft 406 kts
2026-04-26 20:00 33.51606 129.85924 12821 ft 395 kts 13°
2026-04-26 20:00 33.54187 129.86848 12626 ft 378 kts 13°
2026-04-26 20:01 33.56675 129.87730 12155 ft 370 kts 13°
2026-04-26 20:01 33.59135 129.88600 11566 ft 367 kts 13°
2026-04-26 20:01 33.61567 129.89463 11000 ft 363 kts 13°
2026-04-26 20:01 33.63977 129.90321 10546 ft 356 kts 14°
2026-04-26 20:02 33.66301 129.91153 10400 ft 341 kts 14°
2026-04-26 20:02 33.68527 129.91952 10266 ft 327 kts 14°
2026-04-26 20:02 33.70658 129.92718 10140 ft 312 kts 14°
2026-04-26 20:02 33.72019 129.93206 10062 ft 303 kts 13°
2026-04-26 20:03 33.74665 129.94155 9744 ft 292 kts 13°
2026-04-26 20:03 33.76606 129.94848 9309 ft 290 kts 13°
2026-04-26 20:03 33.78566 129.95347 8882 ft 286 kts
2026-04-26 20:03 33.80544 129.95508 8462 ft 284 kts
2026-04-26 20:04 33.82477 129.95655 8203 ft 276 kts
2026-04-26 20:04 33.84394 129.95810 8106 ft 277 kts
2026-04-26 20:04 33.86321 129.95967 8004 ft 277 kts
2026-04-26 20:04 33.88210 129.96418 7990 ft 278 kts 17°
2026-04-26 20:05 33.89975 129.97399 7992 ft 281 kts 25°
2026-04-26 20:05 33.91723 129.98452 7988 ft 280 kts 24°
2026-04-26 20:05 33.93470 129.99494 7988 ft 280 kts 24°
2026-04-26 20:05 33.95219 130.00534 7988 ft 280 kts 24°
2026-04-26 20:06 33.96965 130.01588 7987 ft 280 kts 27°
2026-04-26 20:06 33.98542 130.02928 7988 ft 283 kts 39°
2026-04-26 20:06 33.99893 130.04656 7988 ft 283 kts 47°
2026-04-26 20:06 34.01179 130.06457 7988 ft 283 kts 46°
2026-04-26 20:07 34.02473 130.08246 7986 ft 283 kts 46°
2026-04-26 20:07 34.03772 130.10034 7985 ft 283 kts 46°
2026-04-26 20:07 34.05059 130.11834 7984 ft 284 kts 50°
2026-04-26 20:07 34.06071 130.13882 7985 ft 287 kts 64°
2026-04-26 20:08 34.06728 130.16161 7986 ft 288 kts 70°
2026-04-26 20:08 34.07355 130.18457 7982 ft 288 kts 69°
2026-04-26 20:08 34.07989 130.20744 7982 ft 288 kts 69°
2026-04-26 20:08 34.08627 130.23034 7985 ft 288 kts 69°
2026-04-26 20:09 34.09201 130.25351 7986 ft 289 kts 77°
2026-04-26 20:09 34.09374 130.27777 7985 ft 292 kts 90°
2026-04-26 20:09 34.09223 130.30219 7988 ft 292 kts 92°
2026-04-26 20:09 34.09070 130.32660 7987 ft 292 kts 92°
2026-04-26 20:10 34.08923 130.35102 7985 ft 292 kts 93°
2026-04-26 20:10 34.08414 130.37462 7978 ft 293 kts 117°
2026-04-26 20:10 34.07140 130.39317 7924 ft 285 kts 144°
2026-04-26 20:10 34.05388 130.40272 7827 ft 272 kts 172°
2026-04-26 20:11 34.03556 130.40175 7544 ft 263 kts 199°
2026-04-26 20:11 34.01910 130.39188 6941 ft 269 kts 215°
2026-04-26 20:11 34.00292 130.37981 6471 ft 277 kts 211°
2026-04-26 20:12 33.96657 130.36067 5767 ft 283 kts 200°
2026-04-26 20:12 33.94787 130.35370 5440 ft 280 kts 198°
2026-04-26 20:12 33.92917 130.34743 5069 ft 278 kts 197°
2026-04-26 20:12 33.91056 130.34142 4703 ft 276 kts 197°
2026-04-26 20:13 33.89225 130.33554 4367 ft 273 kts 197°
2026-04-26 20:13 33.87416 130.32970 4051 ft 269 kts 198°
2026-04-26 20:13 33.85579 130.32373 3642 ft 269 kts 198°
2026-04-26 20:13 33.83798 130.31791 3284 ft 268 kts 198°
2026-04-26 20:14 33.82005 130.31205 2910 ft 266 kts 198°
2026-04-26 20:14 33.80178 130.30879 2501 ft 270 kts 176°
2026-04-26 20:14 33.78380 130.31533 2205 ft 269 kts 157°
2026-04-26 20:14 33.76763 130.32564 2102 ft 258 kts 151°
2026-04-26 20:15 33.75251 130.33635 2004 ft 246 kts 152°
2026-04-26 20:15 33.73807 130.34626 2003 ft 231 kts 152°
2026-04-26 20:15 33.72467 130.35550 1998 ft 211 kts 152°
2026-04-26 20:15 33.71282 130.36366 2009 ft 182 kts 153°
2026-04-26 20:16 33.70256 130.37072 1998 ft 157 kts 153°
2026-04-26 20:16 33.69349 130.37693 2005 ft 147 kts 153°
2026-04-26 20:16 33.68462 130.38301 1996 ft 147 kts 153°
2026-04-26 20:16 33.67576 130.38910 1822 ft 145 kts 153°
2026-04-26 20:17 33.66709 130.39506 1641 ft 142 kts 153°
2026-04-26 20:17 33.65855 130.40092 1446 ft 141 kts 153°
2026-04-26 20:17 33.65009 130.40673 1265 ft 139 kts 153°
2026-04-26 20:17 33.64454 130.41057 1108 ft 138 kts 152°
2026-04-26 20:18 33.63374 130.41814 903 ft 134 kts 151°
2026-04-26 20:18 33.62560 130.42359 719 ft 133 kts 150°
2026-04-26 20:18 33.61762 130.42892 529 ft 131 kts 149°
2026-04-26 20:18 33.60992 130.43462 382 ft 132 kts 148°
2026-04-26 20:19 33.60196 130.43998 205 ft 131 kts 153°
2026-04-26 20:19 33.59406 130.44509 55 ft 129 kts 149°
2026-04-26 20:19 33.58650 130.45029 31 ft 111 kts 150°
2026-04-26 20:19 33.58155 130.45361 32 ft 48 kts 152°
2026-04-26 20:20 33.57923 130.45418 35 ft 3 kts 181°
2026-04-26 20:20 33.57907 130.45417 35 ft 5 kts 181°
2026-04-26 20:20 33.57874 130.45415 34 ft 4 kts 191°
2026-04-26 20:20 33.57847 130.45382 35 ft 6 kts 251°
2026-04-26 20:21 33.57871 130.45334 35 ft 9 kts 326°
2026-04-26 20:21 33.57935 130.45286 34 ft 13 kts 330°
2026-04-26 20:21 33.58022 130.45228 33 ft 13 kts 323°
2026-04-26 20:21 33.58018 130.45148 33 ft 9 kts 255°
2026-04-26 20:22 33.58053 130.45090 31 ft 11 kts 313°
2026-04-26 20:22 33.58124 130.45043 31 ft 14 kts 331°
2026-04-26 20:22 33.58216 130.44977 32 ft 17 kts 326°
2026-04-26 20:22 33.58323 130.44888 31 ft 18 kts 320°
2026-04-26 20:23 33.58374 130.44752 30 ft 12 kts 258°
2026-04-26 20:23 33.58368 130.44738 30 ft 3 kts 242°
2026-04-26 20:23 33.58346 130.44699 30 ft 8 kts 224°
2026-04-26 20:23 33.58294 130.44704 30 ft 0 kts 150°
2026-04-26 20:24 33.58293 130.44707 30 ft 1 kts 123°
2026-04-26 20:25 33.58287 130.44732 30 ft 4 kts 111°
2026-04-26 20:25 33.58271 130.44751 31 ft 4 kts 154°
2026-04-26 20:25 33.58267 130.44754 31 ft 0 kts 154°
2026-04-26 20:25 33.58263 130.44756 31 ft 0 kts 155°